EW4784 Weather Reports


Display with metric or nautical units.
time (UTC)temp
F
wind
direction
speed
MPH
gust
MPH
rain 1hr
in
rain 24hr
in
rain mn
in
humidity
%
barometer
mb
20260504070125 48 223 3.0 8.0 0.00 0.00 0.00 73
20260504060112 49 230 5.0 11.0 0.00 0.00 0.00 70
20260504050601 50 228 8.0 14.0 0.00 0.00 0.00 67
20260504050122 50 225 7.0 15.0 0.00 0.00 0.00 67
20260504045559 50 222 8.0 17.0 0.00 0.00 0.00 67
20260504045059 50 226 6.0 15.0 0.00 0.00 0.00 67
20260504044557 50 217 6.0 15.0 0.00 0.00 0.00 67
20260504044056 50 225 10.0 19.0 0.00 0.00 0.00 67
20260504043555 50 220 7.0 19.0 0.00 0.00 0.00 67
20260504043055 50 214 11.0 27.0 0.00 0.00 0.00 67
20260504042614 50 210 8.0 21.0 0.00 0.00 0.00 67
20260504042052 50 225 5.0 20.0 0.00 0.00 0.00 67
20260504041551 50 228 7.0 19.0 0.00 0.00 0.00 67
20260504041051 50 216 7.0 14.0 0.00 0.00 0.00 67
20260504040550 50 218 9.0 25.0 0.00 0.00 0.00 67
20260504040110 50 220 6.0 15.0 0.00 0.00 0.00 67
20260504035547 50 217 11.0 24.0 0.00 0.00 0.00 67
20260504035107 51 216 11.0 20.0 0.00 0.00 0.00 67
20260504034545 51 214 10.0 19.0 0.00 0.00 0.00 66
20260504034044 51 224 8.0 22.0 0.00 0.00 0.00 66
20260504033543 51 222 10.0 19.0 0.00 0.00 0.00 66
20260504033042 51 223 9.0 19.0 0.00 0.00 0.00 66
20260504032602 51 226 13.0 28.0 0.00 0.00 0.00 66
20260504032040 50 225 12.0 24.0 0.00 0.00 0.00 66
20260504031539 51 222 9.0 16.0 0.00 0.00 0.00 67
20260504031038 51 216 9.0 27.0 0.00 0.00 0.00 66
20260504030537 51 218 6.0 16.0 0.00 0.00 0.00 66
20260504030036 51 217 9.0 25.0 0.00 0.00 0.00 66
20260504025536 51 212 10.0 25.0 0.00 0.00 0.00 66
20260504025034 51 219 8.0 17.0 0.00 0.00 0.00 66
20260504024533 51 224 9.0 20.0 0.00 0.00 0.00 66
20260504024032 51 213 12.0 21.0 0.00 0.00 0.00 66
20260504023531 51 216 9.0 18.0 0.00 0.00 0.00 65
20260504023030 51 227 8.0 17.0 0.00 0.00 0.00 65
20260504022529 51 213 8.0 17.0 0.00 0.00 0.00 65
20260504022029 51 225 7.0 17.0 0.00 0.00 0.00 65
20260504021527 51 234 5.0 16.0 0.00 0.00 0.00 64
20260504021047 52 220 6.0 14.0 0.00 0.00 0.00 64
20260504020525 52 233 6.0 12.0 0.00 0.00 0.00 63
20260504020024 52 238 10.0 20.0 0.00 0.00 0.00 63
20260504015523 52 223 7.0 15.0 0.00 0.00 0.00 63
20260504015022 52 240 8.0 16.0 0.00 0.00 0.00 63
20260504014520 52 246 3.0 13.0 0.00 0.00 0.00 62
20260504014020 52 217 5.0 13.0 0.00 0.00 0.00 62
20260504013519 52 236 6.0 17.0 0.00 0.00 0.00 62
20260504013018 52 234 8.0 17.0 0.00 0.00 0.00 62
20260504012516 52 243 6.0 14.0 0.00 0.00 0.00 62
20260504012016 53 248 7.0 18.0 0.00 0.00 0.00 61
20260504011515 53 244 9.0 19.0 0.00 0.00 0.00 61
20260504011013 53 263 11.0 22.0 0.00 0.00 0.00 60
20260504010513 53 254 7.0 22.0 0.00 0.00 0.00 60
20260504010012 53 255 7.0 16.0 0.00 0.00 0.00 59
20260504005516 54 234 8.0 20.0 0.00 0.00 0.00 59
20260504005009 54 248 8.0 18.0 0.00 0.00 0.00 58
20260504004509 54 292 8.0 19.0 0.00 0.00 0.00 58
20260504004010 54 277 14.0 38.0 0.00 0.00 0.00 57
20260504003507 55 260 12.0 31.0 0.00 0.00 0.00 57
20260504003005 55 265 13.0 39.0 0.00 0.00 0.00 56
20260504002504 55 274 13.0 31.0 0.00 0.00 0.00 55
20260504002003 55 276 12.0 34.0 0.00 0.00 0.00 55
20260504001503 56 272 11.0 26.0 0.00 0.00 0.00 54
20260504001002 56 270 15.0 35.0 0.00 0.00 0.00 53
20260504000501 56 265 14.0 32.0 0.00 0.00 0.00 53
20260504000031 57 280 14.0 29.0 0.00 0.00 0.00 53
20260504000000 57 280 14.0 29.0 0.00 0.00 0.00 53
20260503235458 57 258 11.0 33.0 0.00 0.00 0.00 52
20260503234958 57 259 12.0 25.0 0.00 0.00 0.00 50
20260503234457 58 262 11.0 26.0 0.00 0.00 0.00 49
20260503233955 58 274 13.0 31.0 0.00 0.00 0.00 48
20260503233515 58 252 8.0 27.0 0.00 0.00 0.00 48
20260503232954 58 281 12.0 22.0 0.00 0.00 0.00 47
20260503232453 58 259 8.0 29.0 0.00 0.00 0.00 46
20260503231952 58 265 13.0 30.0 0.00 0.00 0.00 45
20260503231451 59 266 9.0 25.0 0.00 0.00 0.00 46
20260503231011 59 262 11.0 28.0 0.00 0.00 0.00 45
20260503230448 59 265 11.0 24.0 0.00 0.00 0.00 45
20260503225947 60 269 15.0 41.0 0.00 0.00 0.00 44
20260503225446 60 280 13.0 26.0 0.00 0.00 0.00 43
20260503224946 60 285 12.0 33.0 0.00 0.00 0.00 44
20260503224445 60 268 11.0 28.0 0.00 0.00 0.00 43
20260503224005 60 270 12.0 35.0 0.00 0.00 0.00 43
20260503223443 60 272 15.0 40.0 0.00 0.00 0.00 42
20260503222942 61 270 11.0 35.0 0.00 0.00 0.00 42
20260503222501 62 240 17.0 33.0 0.00 0.00 0.00 40
20260503221939 62 242 16.0 36.0 0.00 0.00 0.00 40
20260503221459 63 253 17.0 41.0 0.00 0.00 0.00 40
20260503220938 63 285 9.0 28.0 0.00 0.00 0.00 40
20260503220457 62 290 12.0 27.0 0.00 0.00 0.00 41
20260503215936 61 266 18.0 42.0 0.00 0.00 0.00 41
20260503215435 61 285 19.0 41.0 0.00 0.00 0.00 40
20260503214933 61 282 15.0 38.0 0.00 0.00 0.00 40
20260503214432 61 272 13.0 29.0 0.00 0.00 0.00 40
20260503213932 61 282 14.0 31.0 0.00 0.00 0.00 40
20260503213431 61 266 14.0 35.0 0.00 0.00 0.00 40
20260503212930 62 273 14.0 36.0 0.00 0.00 0.00 39
20260503212428 62 263 9.0 22.0 0.00 0.00 0.00 39
20260503211928 63 254 16.0 35.0 0.00 0.00 0.00 39
20260503211447 63 291 19.0 36.0 0.00 0.00 0.00 38
20260503210925 62 271 16.0 36.0 0.00 0.00 0.00 40
20260503210424 62 272 12.0 35.0 0.00 0.00 0.00 40
20260503205945 62 266 12.0 39.0 0.00 0.00 0.00 39
20260503205423 63 247 14.0 36.0 0.00 0.00 0.00 39
20260503204921 64 267 11.0 28.0 0.00 0.00 0.00 39
20260503204420 64 273 18.0 36.0 0.00 0.00 0.00 37
20260503203919 64 283 14.0 34.0 0.00 0.00 0.00 37
20260503203439 64 278 18.0 40.0 0.00 0.00 0.00 38
20260503202917 63 271 17.0 36.0 0.00 0.00 0.00 37
20260503202438 62 250 14.0 34.0 0.00 0.00 0.00 38
20260503201915 63 262 13.0 39.0 0.00 0.00 0.00 37
20260503201414 64 274 15.0 35.0 0.00 0.00 0.00 36
20260503200913 65 249 16.0 35.0 0.00 0.00 0.00 36
20260503200412 65 265 19.0 45.0 0.00 0.00 0.00 36
20260503195932 65 262 15.0 31.0 0.00 0.00 0.00 36
20260503195410 65 258 17.0 40.0 0.00 0.00 0.00 35
20260503194909 65 279 14.0 37.0 0.00 0.00 0.00 35
20260503194409 65 275 17.0 39.0 0.00 0.00 0.00 35
20260503193907 65 275 14.0 35.0 0.00 0.00 0.00 35
20260503193427 65 284 11.0 26.0 0.00 0.00 0.00 36
20260503192906 64 270 16.0 34.0 0.00 0.00 0.00 35
20260503192425 65 254 14.0 38.0 0.00 0.00 0.00 35
20260503191904 64 259 11.0 31.0 0.00 0.00 0.00 36
20260503191402 64 286 19.0 40.0 0.00 0.00 0.00 34
20260503190901 65 278 19.0 44.0 0.00 0.00 0.00 34
20260503190400 64 280 18.0 35.0 0.00 0.00 0.00 35
20260503185859 65 282 16.0 36.0 0.00 0.00 0.00 34
20260503185418 65 269 17.0 39.0 0.00 0.00 0.00 35
20260503184857 65 271 13.0 39.0 0.00 0.00 0.00 37
20260503184357 64 282 15.0 31.0 0.00 0.00 0.00 36
20260503183856 64 266 18.0 38.0 0.00 0.00 0.00 37
20260503183354 64 266 14.0 32.0 0.00 0.00 0.00 37
20260503182853 62 246 15.0 33.0 0.00 0.00 0.00 38
20260503182352 62 256 17.0 35.0 0.00 0.00 0.00 37
20260503181913 63 277 16.0 32.0 0.00 0.00 0.00 36
20260503181350 64 280 13.0 29.0 0.00 0.00 0.00 37
20260503180849 63 273 11.0 22.0 0.00 0.00 0.00 39
20260503180348 61 283 9.0 26.0 0.00 0.00 0.00 40
20260503175847 61 288 13.0 30.0 0.00 0.00 0.00 38
20260503175346 63 269 10.0 25.0 0.00 0.00 0.00 37
20260503174906 63 267 11.0 33.0 0.00 0.00 0.00 39
20260503174344 63 294 9.0 22.0 0.00 0.00 0.00 38
20260503173843 63 287 14.0 38.0 0.00 0.00 0.00 38
20260503173342 63 300 15.0 36.0 0.00 0.00 0.00 38
20260503172840 62 270 13.0 27.0 0.00 0.00 0.00 39
20260503172339 62 270 14.0 27.0 0.00 0.00 0.00 38
20260503171838 62 269 14.0 37.0 0.00 0.00 0.00 39
20260503171338 61 262 10.0 31.0 0.00 0.00 0.00 40
20260503170858 60 282 15.0 36.0 0.00 0.00 0.00 39
20260503170336 61 257 9.0 29.0 0.00 0.00 0.00 40
20260503150813 58 288 16.0 34.0 0.00 0.00 0.00 39
20260503150312 58 309 13.0 29.0 0.00 0.00 0.00 40
20260503140300 56 287 15.0 34.0 0.00 0.00 0.00 43
20260503131310 50 282 10.0 25.0 0.00 0.00 0.00 49
20260503130748 50 284 8.0 20.0 0.00 0.00 0.00 50
20260503130247 50 290 11.0 24.0 0.00 0.00 0.00 50
20260503110724 41 266 6.0 16.0 0.00 0.00 0.00 58
20260503110223 41 264 5.0 14.0 0.00 0.00 0.00 58
20260503100211 36 277 1.0 5.0 0.00 0.00 0.00 65
20260503090159 35 278 1.0 8.0 0.00 0.00 0.00 68
20260503081149 36 295 1.0 9.0 0.00 0.00 0.00 69
20260503080648 36 273 0.0 3.0 0.00 0.00 0.00 69
20260503080147 35 275 0.0 5.0 0.00 0.00 0.00 70